GFSNIL_sfc_thetae_159.txt.gz
Theta_e
325 325 325 325 325 324 324 324 324 322 321 320 320 319 318 318 317 317 317 316 316 316
323 324 325 326 327 326 326 326 326 324 322 322 321 320 319 317 317 317 317 317 317 316
318 321 323 325 325 326 327 327 326 324 323 323 322 321 320 318 318 317 317 317 317 317
305 308 312 316 319 323 326 327 326 325 324 323 322 322 320 319 319 317 317 318 317 317
300 301 302 304 307 312 316 322 325 325 325 324 324 324 322 321 320 319 318 317 317 317
298 298 299 299 301 304 307 310 315 320 323 324 324 324 323 323 322 321 320 320 319 319
294 296 297 297 298 300 302 303 306 310 315 319 322 323 323 323 323 322 322 322 321 321
293 293 294 294 295 296 297 299 302 305 309 312 315 319 320 321 322 322 321 321 321 320
290 290 291 292 292 293 294 295 297 299 302 304 308 307 305 308 319 320 319 319 320 320
287 287 287 288 289 290 291 293 294 295 297 299 302 302 302 300 312 317 319 319 319 318
283 283 284 285 286 287 289 290 291 292 294 296 298 298 299 299 307 313 316 318 319 317
280 279 281 281 283 284 285 286 288 290 291 291 293 295 296 298 304 307 309 313 317 317
277 278 278 279 280 283 284 285 286 287 289 289 290 293 295 297 299 302 304 307 309 295
275 276 277 279 280 279 280 282 284 286 287 288 289 291 294 296 297 299 300 303 304 299

GFSNIL_sfc_thetae_162.txt.gz
Theta_e
322 322 322 322 322 323 323 323 324 323 321 320 319 319 318 317 317 316 316 315 316 315
310 316 322 324 325 325 325 325 324 323 323 321 321 320 319 318 317 317 316 316 316 316
301 303 304 307 307 311 315 321 325 325 323 323 322 321 320 319 319 317 317 317 317 317
298 299 300 300 301 302 305 307 311 316 322 322 322 321 321 320 320 318 317 318 317 316
294 295 296 296 297 299 300 302 303 305 309 316 322 322 322 321 321 319 318 318 317 316
291 292 292 293 294 295 296 296 298 300 302 305 309 316 320 322 322 322 321 320 319 318
288 290 290 291 292 293 293 293 294 296 297 300 303 307 310 315 319 321 321 322 321 320
287 288 288 288 288 289 290 291 292 293 294 295 297 300 303 307 310 313 317 319 321 321
285 284 283 283 284 285 286 288 289 290 291 292 293 295 296 298 301 305 308 311 315 318
280 279 279 280 281 281 282 284 285 286 287 288 290 293 294 294 297 299 302 305 309 312
276 275 277 278 278 278 280 281 282 283 285 286 288 291 292 292 293 295 296 300 303 307
274 274 274 274 275 277 278 279 279 280 280 281 283 288 290 291 290 291 292 295 299 303
273 273 272 272 273 275 275 276 278 279 281 283 283 286 288 289 288 288 289 291 293 293
272 272 272 272 273 274 274 276 276 278 279 280 281 282 287 289 288 288 288 289 291 293

GFSNIL_sfc_thetae_165.txt.gz
Theta_e
317 323 323 324 323 323 323 324 324 323 322 321 321 320 319 318 318 318 319 318 317 316
302 303 304 305 307 308 310 314 320 324 324 322 322 321 321 318 317 317 317 317 317 316
297 299 300 300 300 302 303 304 306 308 312 320 323 323 322 321 321 319 318 317 316 317
294 295 296 296 297 297 298 299 299 301 304 307 311 320 322 322 321 319 319 319 318 317
291 292 292 292 293 295 294 295 296 297 299 300 303 306 310 316 319 320 319 319 318 317
288 289 289 289 290 290 291 292 293 294 294 296 298 300 303 306 310 314 318 319 319 319
286 287 285 285 285 286 287 288 289 291 292 294 294 295 298 301 305 305 307 312 316 319
284 282 282 282 282 283 284 285 286 287 288 290 291 292 294 295 296 297 298 301 305 308
278 278 278 279 280 280 281 282 283 283 285 286 287 290 291 292 293 293 293 295 298 301
276 276 276 276 277 277 278 279 280 282 283 283 284 286 288 288 289 290 291 292 293 295
274 274 274 274 274 275 276 276 277 278 279 280 281 284 286 287 288 288 289 290 292 292
273 273 273 273 273 274 274 275 276 277 278 278 280 283 284 284 284 284 285 288 290 291
272 272 271 272 273 274 274 274 276 276 277 278 279 281 283 284 284 283 285 287 288 288
271 271 272 272 272 272 272 273 273 274 275 276 277 279 281 282 282 282 283 284 285 287

GFSNIL_sfc_thetae_168.txt.gz
Theta_e
306 307 308 308 316 314 317 319 322 325 324 323 323 322 321 320 320 320 319 318 318 318
300 300 300 301 302 303 303 303 305 307 312 321 325 325 323 322 320 322 322 322 322 321
298 298 299 299 298 299 300 300 301 302 303 305 308 315 323 323 324 322 321 320 320 320
295 295 296 295 296 296 297 296 297 298 299 300 301 303 306 309 315 319 320 321 319 318
292 292 291 291 291 292 292 293 294 295 295 296 297 299 300 301 304 306 310 316 319 318
289 287 287 287 288 288 289 290 291 291 292 293 294 295 296 297 299 301 304 306 309 312
284 283 284 284 285 285 286 286 287 288 289 290 291 292 293 293 294 295 296 298 300 301
280 281 282 282 282 283 283 284 285 285 286 287 288 289 288 289 290 291 292 294 295 297
279 279 279 279 280 280 281 281 282 282 283 283 284 285 285 286 286 288 288 290 292 293
277 278 278 278 279 278 279 280 280 281 281 281 283 284 284 285 286 286 287 289 290 291
276 276 277 277 277 278 278 278 279 279 280 280 281 282 283 283 284 285 286 287 288 289
275 275 275 275 276 277 277 277 278 278 279 279 279 281 281 282 282 283 283 285 287 288
274 274 274 275 275 275 276 275 276 276 277 278 277 279 280 281 281 281 281 283 284 284
272 272 273 273 273 274 274 274 274 274 276 276 277 278 279 280 280 279 279 280 281 282

GFSNIL_sfc_thetae_171.txt.gz
Theta_e
304 305 304 305 306 304 305 305 306 307 314 323 323 323 322 321 322 322 320 320 320 319
299 299 299 299 300 300 300 300 301 303 304 306 309 317 322 321 320 321 320 319 319 319
297 297 297 297 296 297 297 298 298 299 300 301 303 305 306 310 315 319 321 320 320 320
295 294 294 293 293 293 294 294 295 295 296 297 298 300 301 302 304 305 309 315 319 319
291 290 290 289 289 290 290 291 292 292 293 293 294 295 296 296 298 298 300 303 305 307
286 286 286 286 287 287 287 288 288 289 289 290 291 291 293 293 292 293 295 296 297 298
283 283 284 284 284 284 285 285 285 286 287 288 288 290 288 288 288 289 291 293 294 295
282 282 282 282 282 283 283 283 284 284 284 285 286 286 285 285 286 287 288 290 291 292
281 281 280 280 281 281 281 281 282 282 282 283 284 285 285 284 284 285 285 286 288 290
279 279 279 280 280 279 279 280 280 281 281 281 282 284 284 283 282 284 285 286 286 287
278 277 278 278 278 278 278 278 278 279 279 279 280 282 282 282 282 282 283 284 285 285
276 275 276 276 276 276 276 277 277 277 277 278 278 280 281 281 280 280 281 282 283 283
274 274 274 274 274 275 275 275 276 276 277 277 277 279 280 280 279 278 278 280 281 281
272 272 273 273 273 273 273 274 274 274 275 276 277 277 279 279 278 277 277 278 278 279

GFSNIL_sfc_thetae_174.txt.gz
Theta_e
301 301 301 301 301 300 300 300 302 303 305 306 307 310 318 321 321 321 320 320 320 320
298 298 297 297 298 297 297 298 298 299 299 301 302 303 305 308 312 318 319 319 319 319
294 295 294 294 293 294 294 295 295 295 296 297 297 298 298 298 301 302 304 308 312 318
291 291 291 290 290 290 291 291 291 291 292 292 292 293 294 295 295 294 296 297 298 299
287 287 286 286 286 287 287 288 288 289 289 290 290 291 290 289 290 290 290 292 293 293
283 283 283 284 284 285 285 285 286 286 286 286 287 286 286 286 287 287 288 289 289 290
282 282 282 282 283 283 283 283 283 284 285 285 286 285 285 284 285 285 287 288 289 290
281 281 281 281 282 282 282 282 283 283 283 284 284 284 284 283 283 283 284 286 287 288
280 280 279 280 279 280 280 280 281 281 281 281 282 284 284 283 281 282 283 283 285 285
278 278 278 278 278 277 277 278 278 278 278 278 279 282 283 282 280 280 281 281 281 282
276 276 277 277 276 276 276 276 276 276 277 277 278 281 281 281 279 279 279 280 280 280
275 275 275 275 274 274 275 275 275 276 275 275 276 279 280 280 277 277 277 278 279 279
274 274 273 273 273 274 274 274 275 275 275 276 275 278 279 278 276 275 275 276 277 278
272 272 272 272 273 273 273 273 273 273 274 274 274 274 277 278 275 274 274 274 274 275

GFSNIL_sfc_thetae_180.txt.gz
Theta_e
297 297 297 297 298 297 297 297 300 300 301 301 302 304 306 305 305 304 305 303 303 308
294 294 293 294 295 295 297 297 297 297 297 297 298 300 300 298 300 299 300 299 299 299
291 293 294 294 293 293 293 294 294 294 294 294 294 294 294 293 294 294 294 294 294 294
287 288 288 289 290 290 290 291 291 291 292 290 289 290 290 290 290 290 290 291 291 291
285 285 285 286 286 287 287 288 288 289 288 287 287 287 287 286 287 287 286 287 288 288
282 282 283 283 284 284 284 284 285 285 285 284 285 284 284 284 284 284 285 286 286 285
280 280 281 281 281 282 282 282 282 282 283 283 283 282 282 281 282 282 283 284 284 283
280 280 280 280 280 280 280 280 280 280 281 281 282 282 280 280 280 280 280 280 282 282
279 279 279 279 278 279 278 278 278 278 278 280 281 283 282 280 279 279 279 279 279 280
278 278 277 277 277 277 276 276 276 277 277 278 279 282 281 280 279 278 278 278 278 278
277 277 276 276 276 275 276 275 275 276 276 278 279 281 280 279 277 277 277 277 276 276
277 276 275 275 274 275 275 276 275 276 276 275 277 279 280 277 276 275 275 275 275 275
276 275 274 274 274 275 275 275 275 275 275 275 273 278 278 276 275 274 274 274 275 276
274 274 274 274 274 274 274 274 274 272 273 273 273 274 276 277 275 274 273 273 273 273

GFSNIL_sfc_thetae_186.txt.gz
Theta_e
301 304 304 306 307 306 303 303 305 305 305 305 306 305 306 305 305 305 304 303 304 302
295 297 297 296 297 296 297 298 300 300 299 300 300 298 298 299 298 298 298 297 297 296
292 293 293 293 293 293 294 297 296 296 295 295 294 294 295 295 293 293 294 293 291 291
289 289 290 289 290 291 293 294 293 292 292 291 291 292 291 291 291 289 288 288 287 287
286 287 286 286 287 288 288 290 289 289 289 288 288 288 288 287 286 286 285 285 285 283
283 283 283 284 284 285 286 286 286 286 285 285 284 284 284 285 284 283 283 282 281 281
281 281 281 282 282 283 284 284 283 283 283 284 283 283 283 282 281 281 281 281 281 281
281 280 280 281 281 281 282 282 283 282 282 281 281 281 281 281 280 279 279 280 280 280
279 279 280 280 279 279 279 279 280 279 280 279 280 284 283 281 280 279 279 278 278 278
279 279 279 279 278 278 278 278 278 278 279 279 280 283 283 281 279 279 278 277 278 277
279 278 278 277 277 276 277 277 277 277 279 279 280 282 282 280 278 277 277 276 276 276
279 278 277 277 276 276 276 276 276 278 278 278 279 282 281 279 277 276 275 276 275 276
279 278 277 276 275 276 276 276 277 277 277 277 278 280 280 278 277 275 275 275 275 276
277 277 276 275 275 275 275 275 274 274 274 275 277 278 279 278 277 276 275 275 273 275